Location: Salisbury
(38.3600°N, 75.6000°W)
Time: 22:45:25
(UTC-04:00)

Daily predictions for brighter satellites

Satellite Brightness Start Highest point End
(mag) Time Altitude Azimuth Time Altitude Azimuth Time Altitude Azimuth
Cosmos 2360 Rocket 2.4 18:31:42 10° NNW 18:37:11 48° ENE 18:42:38 10° SE
Ariane Rocket 3.4 18:33:02 10° S 18:38:06 73° WSW 18:43:13 10° NNW
SL-08 R/B 4.5 18:32:39 10° S 18:38:45 69° E 18:44:50 10° NNE
Cosmos 1842 Rocket 3.7 18:36:12 10° S 18:40:35 57° E 18:44:57 10° NNE
Cosmos 921 Rocket 3.8 18:38:17 10° N 18:42:17 31° ENE 18:46:10 10° SE
CZ-4 R/B 1.5 18:38:36 10° SSE 18:42:49 83° ENE 18:46:59 10° N
Cosmos 44 Rocket 4.0 18:39:04 10° S 18:43:12 31° ESE 18:47:21 10° NE
COSMOS 2428 3.7 18:39:09 10° N 18:43:49 25° ENE 18:48:28 10° ESE
CSL-04 Rocket 4.5 18:39:49 10° S 18:45:06 58° WSW 18:50:20 10° NNW
Cosmos 2322 Rocket 3.1 18:40:29 10° NNW 18:45:59 56° WSW 18:51:26 10° S
Cosmos 2333 Rocket 3.8 18:43:20 10° NNE 18:46:32 15° NE 18:49:44 10° E
Cosmos 1833 4.2 18:41:20 10° SSW 18:47:02 87° ESE 18:52:42 10° NNE
IRS-1A Rocket 4.4 18:42:34 10° SSE 18:48:25 83° ENE 18:54:21 10° NNW
Cosmos 2219 4.1 18:44:18 10° SSE 18:49:09 29° ESE 18:54:01 10° NE
CZ-4C R/B 2.8 18:45:06 10° S 18:49:32 31° ESE 18:54:25 10° NE
Cosmos 1500 Rocket 3.5 18:50:11 10° N 18:54:29 61° E 18:58:45 10° SSE
Cosmos 2056 Rocket 4.4 18:50:10 10° NNW 18:55:20 56° WSW 19:00:24 10° S
Abrixas 2.8 18:54:50 10° SSW 18:56:46 28° SE 18:58:09 15° E
FENGYUN 3A 4.2 18:53:02 10° SE 18:57:52 35° ENE 19:02:45 10° N
SPOT 3 Rocket 3.6 18:57:55 10° SSE 19:02:58 56° ENE 19:08:05 10° N
Cosmos 468 4.5 18:59:14 10° S 19:04:22 65° ESE 19:09:34 10° NNE
BREEZE-M R/B 3.9 19:06:50 10° SSE 19:08:28 15° SE 19:09:00 15° ESE
EO 1 Del DPAF 3.5 19:06:52 10° N 19:10:42 71° WNW 19:14:30 10° SSW
Cosmos 2322 3.7 19:06:43 10° NNW 19:12:28 76° ENE 19:18:09 10° SSE
Cosmos 1452 Rocket 3.5 19:07:41 10° NNW 19:12:58 82° ENE 19:18:13 10° SSE
Cosmos 1315 Rocket 2.8 19:09:55 10° N 19:14:00 68° E 19:18:05 10° SSE
Meteor 2-1 Rocket 4.4 19:08:26 10° S 19:14:13 83° W 19:20:09 10° N
ERS-2 3.7 19:11:27 10° S 19:14:56 40° W 19:18:26 10° NNW
Cosmos 2098 Rocket 3.6 19:13:35 10° SSE 19:17:45 45° E 19:23:02 10° NNE
Aureole 2 Rocket 3.9 19:16:17 10° N 19:19:30 23° ENE 19:20:31 21° E
COSMO-SKYMED 1 2.8 19:15:25 10° N 19:19:46 75° WNW 19:24:05 10° SSW
Sich 1 4.0 19:18:05 10° NNE 19:21:43 25° ENE 19:23:42 18° ESE
ASTRO E2 4.3 19:19:10 10° WSW 19:22:34 27° S 19:25:19 13° SE
ALOS 2.2 19:19:16 10° SSE 19:23:51 62° ENE 19:28:28 10° N
Cosmos 2219 Rocket 2.9 19:20:05 10° N 19:25:07 33° ENE 19:28:18 19° ESE
Cosmos 1726 2.3 19:23:00 10° SSE 19:26:32 45° E 19:30:05 10° NNE
Iridium 4 Rocket 3.7 19:22:25 10° S 19:27:52 66° E 19:33:41 10° N
Cosmos 1805 Rocket 3.6 19:28:59 10° N 19:33:16 51° E 19:37:34 10° SSE
SJ-6B 3.9 19:35:42 24° NE 19:35:42 24° NE 19:37:58 10° NNE
SL-24 R/B - RUBIN 2 4.5 19:32:53 10° NW 19:37:29 51° WSW 19:41:42 10° SSE
RESURS DK-1 3.8 19:35:44 10° NW 19:39:35 39° WSW 19:43:25 10° S
NOAA 12 4.1 19:34:44 10° SSE 19:40:01 85° WSW 19:45:23 10° NNW
Cosmos 1666 Rocket 3.9 19:38:14 10° N 19:42:20 40° ENE 19:43:27 33° ESE
BREEZE-M DEB (TANK) 4.3 19:25:59 10° WNW 19:45:23 51° N 19:48:19 28° ENE
Cosmos 1821 Rocket 3.9 19:40:05 10° S 19:46:14 83° E 19:52:30 10° N
SAR-Lupe-3 4.5 19:43:26 10° NNE 19:47:02 85° WNW 19:50:36 10° SSW
DELTA 2 R/B (1) 3.8 19:41:37 10° WNW 19:47:09 66° SSW 19:50:05 28° SE
Cosmos 1000 Rocket 4.4 19:41:09 10° N 19:47:24 87° E 19:53:33 10° S
Cosmos 1934 Rocket 4.0 19:41:56 10° S 19:48:10 64° E 19:54:29 10° NNE
Cosmos 2333 4.1 19:42:31 10° NNW 19:48:16 79° ENE 19:54:02 10° SSE
Cosmos 1048 Rocket 4.2 19:43:24 10° SSW 19:48:29 68° WNW 19:53:36 10° NNE
Atlas Centaur 2 3.5 19:44:57 10° WSW 19:48:45 24° S 19:51:48 16° SSE
Cosmos 1633 Rocket 3.5 19:44:43 10° N 19:48:39 39° ENE 19:48:39 39° ENE
BREEZE-M DEB (TANK) 4.4 19:46:56 10° NW 19:51:59 79° NE 20:11:28 14° SE
Gbstr 26 Del rocket 3.8 19:47:06 10° NW 19:52:11 55° NE 19:54:24 36° E
Cosmos 2239 Rocket 4.4 19:46:43 10° S 19:52:51 88° W 19:59:02 10° N
Cosmos 44 4.0 19:52:11 10° SW 19:56:22 45° NW 20:00:11 12° NNE
H-2A R/B 2.6 19:55:43 41° SSE 19:56:56 71° ENE 20:00:51 10° N
In-Cosmos 22 Rocket 4.4 19:53:15 10° N 19:58:51 51° ENE 20:01:27 30° SE
Cosmos 2237 Rocket 2.9 19:54:11 10° N 19:59:14 34° ENE 19:59:14 34° ENE
Cosmos 2227 Rocket 2.4 19:59:39 10° S 20:04:48 45° ESE 20:04:48 45° ESE
Thor Agena Rocket 3.7 20:01:30 10° N 20:06:35 73° WNW 20:11:35 10° SSW
BREEZE-M DEB (TANK) 3.9 20:06:28 10° WNW 20:07:22 16° NW 20:07:22 16° NW
SL-16 R/B 4.0 20:06:26 10° N 20:08:15 15° NNE 20:08:15 15° NNE
Delta 2 Rocket 3.9 20:08:15 10° W 20:11:17 42° SW 20:11:17 42° SW
Cosmos 1300 3.3 20:14:01 10° SSW 20:17:47 56° W 20:20:01 22° N
Cosmos 2123 Rocket 3.9 20:11:42 10° N 20:17:59 86° E 20:24:16 10° S
Cosmos 1605 Rocket 3.8 20:14:29 10° S 20:20:35 79° E 20:26:41 10° N
Cosmos 1980 3.8 20:17:46 10° NNW 20:22:47 54° NE 20:22:47 54° NE
Cosmos 1331 Rocket 4.1 20:21:15 10° NNW 20:25:41 59° NNE 20:25:41 59° NNE
COSMOS 2428 3.7 20:22:52 10° NW 20:28:15 45° WSW 20:33:36 10° S
USA 267 3.1 20:28:50 58° ENE 20:30:05 71° SE 20:36:35 10° SW
Hubble Space Telescope 3.4 20:28:47 10° SSW 20:29:13 11° SSW 20:29:13 11° SSW
Cosmos 2333 Rocket 2.2 20:25:46 10° NNW 20:31:32 85° WSW 20:32:29 64° S
Meteor 2-2 Rocket 4.4 20:31:31 10° SSW 20:37:12 71° W 20:42:52 10° N
CZ-4C R/B 3.5 20:33:02 10° WSW 20:37:50 36° NW 20:41:54 16° NNE
Cosmos 2297 Rocket 3.2 20:36:53 10° SSW 20:39:56 34° SSW 20:39:56 34° SSW
Resurs 01 Rocket 4.0 20:47:32 15° N 20:47:32 15° N 20:48:20 10° N
NOSS 0 Rocket 4.1 20:48:10 10° NNW 20:54:16 65° WSW 20:54:41 63° SW
USA 234 4.4 21:05:13 30° N 21:05:13 30° N 21:09:40 10° NNW
Cosmos 2219 Rocket 3.7 21:04:02 10° NW 21:08:58 32° WSW 21:10:07 30° SW
Cosmos 2237 Rocket 4.2 21:38:19 10° NW 21:41:05 24° WNW 21:41:05 24° WNW
Cosmos 2227 Rocket 4.5 21:44:37 10° WSW 21:46:46 19° W 21:46:46 19° W
